Location: Aula-Vintri
(58.3875°N, 22.4322°E)
Time: 07:05:27
(UTC+00:00)

HJ-1C - Pass Details

Date: 13 October 2019
Orbit: 433 x 449 km, 97.2° (Epoch: 18 November)

Event Time Altitude Azimuth Distance (km) Brightness Sun altitude
Exits shadow 16:41:28 - 143° (SE) 2,148 6.5 -9.9°
Reaches altitude 10° 16:42:50 10° 138° (SE) 1,583 5.8 -10.1°
Maximum altitude 16:46:02 40° 67° (ENE) 676 3.8 -10.5°
Drops below altitude 10° 16:49:15 10° 357° (N) 1,588 6.3 -11.0°
Sets 16:51:21 0° 350° (N) 2,462 7.3 -11.2°
